Location: Klein M�hlingen
(51.9472°N, 11.7453°E)
Time: 11:13:09
(UTC+00:00)

CZ-2C R/B - Pass Details

Date: 09 April 2020
Orbit: 785 x 870 km, 98.3° (Epoch: 28 May)

Event Time Altitude Azimuth Distance (km) Brightness Sun altitude
Rises 19:15:09 0° 17° (NNE) 3,291 5.9 -11.4°
Reaches altitude 10° 19:17:33 10° 23° (NNE) 2,357 5.1 -11.7°
Maximum altitude 19:22:36 52° 99° (E) 982 2.7 -12.4°
Drops below altitude 10° 19:27:40 10° 176° (S) 2,359 4.7 -13.1°
Sets 19:30:04 0° 181° (S) 3,293 5.5 -13.4°
